Date String (YYYY-MM-DD hh:mm:ss) UTC,Instrument flags,absolute air pressure of the measurement (hPa),sample flow rate (lpm),inlet stack bypass flow (lpm),air temperature of the measurement (°C),ambient temperature measured by the external sensor (°C),aerosol sample conditioner tube jacket temperature (°C),OPC LED temperature (°C),internal box temperature (°C),relative humidity of the measurement (%),span deviation,mass concentration of particles derived from Lorenz-Mie calculation of OPC scattering (μg/m³),mass concentration of particles derived from Lorenz-Mie calculation of OPC scattering (μg/m³),mass concentration of particles derived from Lorenz-Mie calculation of OPC scattering (μg/m³)
DateTimeUTC,F1_M11,P_M11,Q1_M11,Q2_M11,T1_M11,T2_M11,T3_M11,T4_M11,T5_M11,U1_M11,ZSPAN_M11,X2_M11,X0_M11,X1_M11
2023-06-24 09:00:00,SystemResetWarning,0829.3,5.00,000.00,030.0,028.4,000.0,038.5,031.4,7.3,0004.8,0005.26,0013.38,0004.20
2023-06-24 09:01:00,SystemResetWarning,0829.3,5.00,000.00,030.0,028.4,000.0,038.5,031.4,7.4,0004.9,0005.28,0013.58,0004.20
2023-06-24 09:02:00,SystemResetWarning,0829.3,5.00,000.00,030.0,028.4,000.0,038.5,031.5,7.9,0004.8,0005.28,0013.53,0004.19
2023-06-24 09:03:00,SystemResetWarning,0829.3,4.99,000.00,030.0,028.4,000.0,038.5,031.5,8.6,0004.5,0005.30,0013.50,0004.19
2023-06-24 09:04:00,SystemResetWarning,0829.4,4.99,000.00,030.1,028.5,000.0,038.5,031.5,9.1,0004.8,0005.33,0013.20,0004.20
2023-06-24 09:05:00,SystemResetWarning,0829.3,5.00,000.00,030.1,028.5,000.0,038.6,031.5,9.0,0004.5,0005.37,0013.92,0004.20
2023-06-24 09:06:00,SystemResetWarning,0829.4,5.00,000.00,030.1,028.5,000.0,038.6,031.5,8.6,0004.4,0005.36,0013.52,0004.21
2023-06-24 09:07:00,SystemResetWarning,0829.3,5.00,000.00,030.1,028.5,000.0,038.6,031.5,8.6,0004.0,0005.35,0013.10,0004.20
2023-06-24 09:08:00,SystemResetWarning,0829.3,5.00,000.00,030.1,028.5,000.0,038.6,031.6,8.7,0003.6,0005.34,0012.93,0004.21
2023-06-24 09:09:00,SystemResetWarning,0829.3,5.00,000.00,030.1,028.5,000.0,038.6,031.6,8.8,0003.7,0005.33,0012.63,0004.20
2023-06-24 09:10:00,SystemResetWarning,0829.3,5.00,000.00,030.1,028.5,000.0,038.6,031.6,8.9,0004.1,0005.31,0012.57,0004.18
2023-06-24 09:11:00,SystemResetWarning,0829.4,5.01,000.00,030.1,028.6,000.0,038.6,031.6,8.4,0003.9,0005.29,0012.50,0004.18
2023-06-24 09:12:00,SystemResetWarning,0829.3,4.99,000.00,030.2,028.6,000.0,038.7,031.6,8.2,0003.8,0005.31,0012.41,0004.19
2023-06-24 09:13:00,SystemResetWarning,0829.4,5.00,000.00,030.2,028.6,000.0,038.7,031.6,8.3,0003.6,0005.30,0012.35,0004.20
2023-06-24 09:14:00,SystemResetWarning,0829.4,4.99,000.00,030.2,028.6,000.0,038.7,031.6,8.3,0003.9,0005.26,0011.46,0004.20
2023-06-24 09:15:00,SystemResetWarning,0829.3,5.00,000.00,030.2,028.6,000.0,038.7,031.6,8.5,0004.1,0005.23,0011.53,0004.20
2023-06-24 09:16:00,SystemResetWarning,0829.4,5.00,000.00,030.2,028.6,000.0,038.7,031.6,8.5,0004.3,0005.21,0010.93,0004.21
2023-06-24 09:17:00,SystemResetWarning,0829.4,5.00,000.00,030.2,028.6,000.0,038.7,031.7,8.4,0004.4,0005.22,0010.69,0004.21
2023-06-24 09:18:00,SystemResetWarning,0829.4,5.01,000.00,030.2,028.6,000.0,038.7,031.7,8.4,0004.1,0005.22,0010.79,0004.21
2023-06-24 09:19:00,SystemResetWarning,0829.4,5.01,000.00,030.2,028.6,000.0,038.7,031.7,8.2,0004.1,0005.20,0010.96,0004.21
2023-06-24 09:20:00,SystemResetWarning,0829.3,5.00,000.00,030.3,028.6,000.0,038.7,031.7,8.3,0004.2,0005.20,0010.81,0004.21
2023-06-24 09:21:00,SystemResetWarning,0829.3,5.00,000.00,030.3,028.6,000.0,038.7,031.7,8.6,0004.2,0005.20,0010.79,0004.22
2023-06-24 09:22:00,SystemResetWarning,0829.4,5.00,000.00,030.3,028.6,000.0,038.8,031.7,9.0,0004.4,0005.21,0011.14,0004.21
2023-06-24 09:23:00,SystemResetWarning,0829.3,4.99,000.00,030.3,028.6,000.0,038.8,031.7,8.9,0004.1,0005.21,0011.18,0004.21
2023-06-24 09:24:00,SystemResetWarning,0829.4,5.00,000.00,030.3,028.6,000.0,038.8,031.7,8.5,0003.1,0005.21,0011.55,0004.20
2023-06-24 09:25:00,SystemResetWarning,0829.3,5.01,000.00,030.3,028.6,000.0,038.8,031.7,8.7,0004.4,0005.24,0011.75,0004.20
2023-06-24 09:26:00,SystemResetWarning,0829.3,5.01,000.00,030.3,028.6,000.0,038.8,031.7,8.8,0002.5,0005.26,0011.72,0004.19
2023-06-24 09:27:00,SystemResetWarning,0829.3,5.00,000.00,030.3,028.6,000.0,038.8,031.7,8.6,0003.6,0005.30,0012.24,0004.20
2023-06-24 09:28:00,SystemResetWarning,0829.3,4.99,000.00,030.3,028.6,000.0,038.8,031.7,8.4,0003.2,0005.36,0012.65,0004.20
2023-06-24 09:29:00,SystemResetWarning,0829.3,5.00,000.00,030.3,028.7,000.0,038.8,031.8,8.5,0003.1,0005.38,0012.51,0004.21
2023-06-24 09:30:00,SystemResetWarning,0829.3,5.00,000.00,030.3,028.6,000.0,038.8,031.7,8.4,0003.2,0005.38,0012.18,0004.20
2023-06-24 09:31:00,SystemResetWarning,0829.4,5.00,000.00,030.3,028.7,000.0,038.8,031.7,8.5,0003.3,0005.36,0012.27,0004.20
2023-06-24 09:32:00,SystemResetWarning,0829.4,5.01,000.00,030.3,028.7,000.0,038.8,031.7,8.4,0003.0,0005.33,0012.14,0004.19
2023-06-24 09:33:00,SystemResetWarning,0829.4,5.00,000.00,030.3,028.7,000.0,038.9,031.7,8.3,0002.9,0005.33,0011.83,0004.20
2023-06-24 09:34:00,SystemResetWarning,0829.4,5.00,000.00,030.4,028.7,000.0,038.9,031.8,8.4,0002.4,0005.35,0012.04,0004.21
2023-06-24 09:35:00,SystemResetWarning,0829.4,4.99,000.00,030.4,028.7,000.0,038.9,031.8,8.6,0002.4,0005.36,0013.05,0004.21
2023-06-24 09:36:00,SystemResetWarning,0829.4,5.00,000.00,030.4,028.7,000.0,038.9,031.7,8.5,0002.6,0005.35,0012.98,0004.21
2023-06-24 09:37:00,SystemResetWarning,0829.3,5.00,000.00,030.4,028.7,000.0,038.9,031.8,8.4,0002.6,0005.39,0012.85,0004.22
2023-06-24 09:38:00,SystemResetWarning,0829.4,5.01,000.00,030.4,028.7,000.0,038.9,031.8,8.4,0003.8,0005.37,0012.38,0004.21
2023-06-24 09:39:00,SystemResetWarning,0829.4,5.00,000.00,030.4,028.8,000.0,038.9,031.8,8.2,0002.1,0005.31,0011.97,0004.21
2023-06-24 09:40:00,SystemResetWarning,0829.5,5.00,000.00,030.4,028.7,000.0,038.9,031.8,8.3,0000.0,0005.31,0012.18,0004.22
2023-06-24 09:41:00,SystemResetWarning,0829.5,4.99,000.00,030.4,028.7,000.0,038.9,031.8,8.1,0001.3,0005.34,0013.18,0004.23
2023-06-24 09:42:00,SystemResetWarning,0829.5,5.00,000.00,030.4,028.7,000.0,038.9,031.9,8.1,0003.9,0005.35,0013.31,0004.23
2023-06-24 09:43:00,SystemResetWarning,0829.5,5.00,000.00,030.4,028.8,000.0,038.9,031.9,8.1,0004.0,0005.37,0014.39,0004.24
2023-06-24 09:44:00,SystemResetWarning,0829.5,5.00,000.00,030.4,028.8,000.0,039.0,031.9,8.1,0004.0,0005.37,0015.34,0004.23
2023-06-24 09:45:00,SystemResetWarning,0829.5,5.00,000.00,030.4,028.7,000.0,039.0,031.8,8.1,0004.0,0005.35,0015.39,0004.21
2023-06-24 09:46:00,SystemResetWarning,0829.5,5.00,000.00,030.4,028.7,000.0,039.0,031.8,8.1,0004.0,0005.30,0014.30,0004.20
2023-06-24 09:47:00,SystemResetWarning,0829.6,5.00,000.00,030.4,028.7,000.0,039.0,031.9,8.1,0004.4,0005.30,0014.19,0004.21
2023-06-24 09:48:00,SystemResetWarning,0829.5,5.00,000.00,030.4,028.8,000.0,039.0,031.8,8.1,0004.3,0005.31,0014.40,0004.21
2023-06-24 09:49:00,SystemResetWarning,0829.5,5.00,000.00,030.4,028.8,000.0,039.0,031.9,8.1,0001.2,0005.29,0014.54,0004.21
2023-06-24 09:50:00,SystemResetWarning,0829.4,5.00,000.00,030.4,028.8,000.0,039.0,031.9,8.0,0001.7,0005.31,0014.51,0004.21
2023-06-24 09:51:00,SystemResetWarning,0829.4,5.00,000.00,030.4,028.8,000.0,039.0,031.9,8.1,0001.7,0005.26,0014.22,0004.20
2023-06-24 09:52:00,SystemResetWarning,0829.4,5.00,000.00,030.5,028.8,000.0,039.0,031.9,8.4,0000.0,0005.25,0013.29,0004.19
2023-06-24 09:53:00,SystemResetWarning,0829.4,4.99,000.00,030.5,028.8,000.0,039.0,031.9,8.4,0000.0,0005.26,0013.45,0004.19
2023-06-24 09:54:00,SystemResetWarning,0829.4,4.99,000.00,030.5,028.8,000.0,039.0,031.9,8.2,0000.0,0005.28,0013.08,0004.19
2023-06-24 09:55:00,SystemResetWarning,0829.4,5.01,000.00,030.5,028.8,000.0,039.0,031.9,8.0,0000.0,0005.26,0012.90,0004.20
2023-06-24 09:56:00,SystemResetWarning,0829.5,5.00,000.00,030.5,028.8,000.0,039.0,031.9,8.0,0000.0,0005.26,0012.96,0004.21
2023-06-24 09:57:00,SystemResetWarning,0829.4,5.01,000.00,030.5,028.8,000.0,039.0,031.9,8.0,0000.0,0005.29,0013.61,0004.22
2023-06-24 09:58:00,SystemResetWarning,0829.4,5.00,000.00,030.5,028.8,000.0,039.0,031.9,8.0,0000.0,0005.29,0013.74,0004.22
2023-06-24 09:59:00,SystemResetWarning,0829.5,5.00,000.00,030.5,028.8,000.0,039.0,031.9,8.1,0000.0,0005.25,0013.75,0004.21
